RJOORJBB

Guest
Details From RJOO - Osaka Intl
To RJBB - Kansai Intl
Flight Number -
Tags Generated
Created
Modified
Stats Distance 25 nm / 46 km
Max Altitude 0 ft / 0 m
Waypoints 2
Social Downloads 1
Likes 0
Share VATSIM

Download

Looking for another format? Having issues loading an existing format? Contact us
Advertisement - Login to hide

Notes

Generated

Route

RJOO RJBB

ID Type Via Altitude Latitude Longitude Leg Dist Tot Dist Heading (true) Name
O RJOO APT - 0 ft / 0 m 34.79527˚ 135.42869˚ - 0 nm - -
O RJBB APT - 0 ft / 0 m 34.41738˚ 135.22928˚ 24 nm 24 nm 204° / 203° -

Altitude Profile

Advertisement - Login to hide

RJOO

Details ICAO RJOO (ITM)
Name OSAKA INTL
Region Japan
Timezone Asia/Tokyo (UTC+9.0)
Stats Elevation 50 ft / 15 m (AMSL)
Location 34.785603° 135.438019°
Runways 2
Magnetic Variation 7.707° W

METAR

RJOO 210900Z 23009KT 190V260 CAVOK 22/06 Q1017 RMK A3005

Decode

TAF

TAF RJOO 210508Z 2106/2212 08008KT 9999 FEW030

Decode

Departure Runways

ID Width Length Bearing (true) Bearing (mag) Surface Threshold Offset Overrun Length
14L 150 ft / 46 m 5,999 ft / 1,829 m 135.13° 142.84° Asphalt 0 ft / 0 m 678 ft / 207 m
14R 200 ft / 61 m 9,846 ft / 3,001 m 135.13° 142.84° Concrete 0 ft / 0 m 240 ft / 73 m
32L 200 ft / 61 m 9,846 ft / 3,001 m 315.15° 322.86° Concrete 0 ft / 0 m 249 ft / 76 m
32R 150 ft / 46 m 5,999 ft / 1,829 m 315.14° 322.85° Asphalt 0 ft / 0 m 571 ft / 174 m

RJBB

Details ICAO RJBB (KIX)
Name KANSAI INTL
Region Japan
Timezone Asia/Tokyo (UTC+9.0)
Stats Elevation 26 ft / 8 m (AMSL)
Location 34.433619° 135.233598°
Runways 2
Magnetic Variation 7.610° W

METAR

RJBB 210930Z 22011KT CAVOK 19/13 Q1017 NOSIG

Decode

TAF

TAF RJBB 210506Z 2106/2212 23012KT 9999 FEW030 BECMG 2111/2113 12004KT BECMG 2200/2203 26008KT BECMG 2209/2212 08004KT

Decode

Destination Runways

ID Width Length Bearing (true) Bearing (mag) Surface Threshold Offset Overrun Length
06L 200 ft / 61 m 13,121 ft / 3,999 m 50.86° 58.47° Asphalt 0 ft / 0 m 200 ft / 61 m
06R 200 ft / 61 m 11,481 ft / 3,499 m 50.86° 58.47° Asphalt 0 ft / 0 m 200 ft / 61 m
24L 200 ft / 61 m 11,481 ft / 3,499 m 230.88° 238.49° Asphalt 0 ft / 0 m 200 ft / 61 m
24R 200 ft / 61 m 13,121 ft / 3,999 m 230.88° 238.49° Asphalt 0 ft / 0 m 200 ft / 61 m

Approach Navaids

Runway Type Ident Frequency Range Bearing (true) Bearing (mag) Slope Elevation
06R Localiser IKD 108.10 MHz 18 nm / 33 km 50.88° 58.49° - 26 ft / 8 m (AMSL)
06R Glidescope IKD 108.10 MHz 10 nm / 19 km 50.87° 58.48° 3.00° 54 ft / 16 m (AMSL)
06R DME IKD 108.10 MHz 18 nm / 33 km - - - 34 ft / 10 m (AMSL)
24L Localiser IKN 110.70 MHz 18 nm / 33 km 230.85° 238.46° - 26 ft / 8 m (AMSL)
24L Glidescope IKN 110.70 MHz 10 nm / 19 km 230.87° 238.48° 3.00° 36 ft / 11 m (AMSL)
24L DME IKN 110.70 MHz 18 nm / 33 km - - - 36 ft / 11 m (AMSL)

Popular Alternatives